Date String (YYYY-MM-DD hh:mm:ss) UTC,Instrument flags,absolute air pressure of the measurement (hPa),sample flow rate (lpm),inlet stack bypass flow (lpm),air temperature of the measurement (°C),ambient temperature measured by the external sensor (°C),aerosol sample conditioner tube jacket temperature (°C),OPC LED temperature (°C),internal box temperature (°C),relative humidity of the measurement (%),span deviation,mass concentration of particles derived from Lorenz-Mie calculation of OPC scattering (μg/m³),mass concentration of particles derived from Lorenz-Mie calculation of OPC scattering (μg/m³),mass concentration of particles derived from Lorenz-Mie calculation of OPC scattering (μg/m³)
DateTimeUTC,F1_M11,P_M11,Q1_M11,Q2_M11,T1_M11,T2_M11,T3_M11,T4_M11,T5_M11,U1_M11,ZSPAN_M11,X0_M11,X2_M11,X1_M11
2024-02-17 05:00:00,SystemResetWarning,0835.5,5.00,000.00,018.6,018.5,000.0,027.0,020.2,12.2,0000.0,0003.88,0003.29,0003.19
2024-02-17 05:01:00,SystemResetWarning,0835.5,5.00,000.00,018.5,018.3,000.0,027.0,020.1,12.2,0000.0,0003.84,0003.28,0003.19
2024-02-17 05:02:00,SystemResetWarning,0835.6,5.00,000.00,018.5,018.1,000.0,027.0,020.0,12.3,0000.0,0003.75,0003.26,0003.18
2024-02-17 05:03:00,SystemResetWarning,0835.7,4.99,000.00,018.4,017.9,000.0,027.0,020.0,12.3,0000.0,0004.06,0003.24,0003.17
2024-02-17 05:04:00,SystemResetWarning,0835.7,5.00,000.00,018.4,017.8,000.0,027.1,020.0,12.3,0000.0,0004.82,0003.24,0003.17
2024-02-17 05:05:00,SystemResetWarning,0835.7,5.00,000.00,018.4,017.7,000.0,027.0,020.0,12.3,0000.0,0004.89,0003.25,0003.16
2024-02-17 05:06:00,SystemResetWarning,0835.7,5.00,000.00,018.4,017.6,000.0,027.1,020.0,12.3,0000.0,0004.89,0003.24,0003.15
2024-02-17 05:07:00,SystemResetWarning,0835.6,5.01,000.00,018.4,017.8,000.0,027.1,020.1,12.4,0000.0,0004.91,0003.23,0003.14
2024-02-17 05:08:00,SystemResetWarning,0835.7,5.01,000.00,018.5,018.5,000.0,027.2,020.6,12.3,0000.0,0004.92,0003.23,0003.13
2024-02-17 05:09:00,SystemResetWarning,0835.8,4.99,000.00,018.7,019.1,000.0,027.2,021.0,12.1,0000.0,0004.93,0003.22,0003.11
2024-02-17 05:10:00,SystemResetWarning,0835.8,4.99,000.00,018.8,018.9,000.0,027.1,020.7,12.1,0000.0,0004.86,0003.19,0003.08
2024-02-17 05:11:00,SystemResetWarning,0835.8,5.00,000.00,018.7,018.7,000.0,027.1,020.4,12.1,0000.0,0004.86,0003.19,0003.08
2024-02-17 05:12:00,SystemResetWarning,0835.8,5.02,000.00,018.6,018.5,000.0,027.0,020.2,12.1,0000.0,0004.88,0003.20,0003.07
2024-02-17 05:13:00,SystemResetWarning,0835.8,5.01,000.00,018.6,018.3,000.0,027.0,020.1,12.2,0000.0,0005.04,0003.20,0003.07
2024-02-17 05:14:00,SystemResetWarning,0835.7,5.00,000.00,018.5,018.1,000.0,027.0,020.0,12.2,0000.0,0005.06,0003.21,0003.08
2024-02-17 05:15:00,SystemResetWarning,0835.8,5.00,000.00,018.5,017.9,000.0,027.1,020.0,12.2,0000.0,0004.22,0003.21,0003.10
2024-02-17 05:16:00,SystemResetWarning,0835.7,4.99,000.00,018.4,017.8,000.0,027.1,020.0,12.2,0000.0,0004.11,0003.21,0003.10
2024-02-17 05:17:00,SystemResetWarning,0835.7,5.00,000.00,018.4,017.7,000.0,027.1,020.0,12.3,0000.0,0004.10,0003.22,0003.11
2024-02-17 05:18:00,SystemResetWarning,0835.8,4.99,000.00,018.4,017.7,000.0,027.1,020.1,12.3,0000.0,0004.11,0003.23,0003.13
2024-02-17 05:19:00,SystemResetWarning,0835.8,5.01,000.00,018.5,018.4,000.0,027.2,020.6,12.2,0000.0,0004.12,0003.24,0003.15
2024-02-17 05:20:00,SystemResetWarning,0835.9,5.00,000.00,018.7,019.1,000.0,027.3,021.0,12.0,0000.0,0004.10,0003.25,0003.15
2024-02-17 05:21:00,SystemResetWarning,0835.8,4.99,000.00,018.8,019.0,000.0,027.2,020.7,11.9,0000.0,0004.10,0003.26,0003.17
2024-02-17 05:22:00,SystemResetWarning,0835.8,5.01,000.00,018.7,018.8,000.0,027.1,020.5,12.0,0000.0,0004.10,0003.26,0003.17
2024-02-17 05:23:00,SystemResetWarning,0835.8,5.02,000.00,018.7,018.6,000.0,027.1,020.3,12.0,0000.0,0004.07,0003.26,0003.18
2024-02-17 05:24:00,SystemResetWarning,0835.8,5.00,000.00,018.6,018.4,000.0,027.0,020.1,12.0,0000.0,0003.94,0003.27,0003.18
2024-02-17 05:25:00,SystemResetWarning,0835.8,4.99,000.00,018.5,018.2,000.0,027.0,020.0,12.0,0000.0,0003.69,0003.27,0003.19
2024-02-17 05:26:00,SystemResetWarning,0835.8,5.00,000.00,018.5,018.0,000.0,027.1,020.0,12.0,0000.0,0003.74,0003.26,0003.18
2024-02-17 05:27:00,SystemResetWarning,0835.9,5.01,000.00,018.4,017.9,000.0,027.1,020.0,12.0,0000.0,0003.71,0003.25,0003.17
2024-02-17 05:28:00,SystemResetWarning,0836.0,5.00,000.00,018.4,017.7,000.0,027.1,020.0,12.0,0000.0,0003.68,0003.24,0003.16
2024-02-17 05:29:00,SystemResetWarning,0836.0,5.01,000.00,018.4,017.9,000.0,027.2,020.2,12.0,0000.0,0003.64,0003.22,0003.14
2024-02-17 05:30:00,SystemResetWarning,0836.1,5.00,000.00,018.6,018.7,000.0,027.2,020.7,11.9,0000.0,0003.59,0003.19,0003.12
2024-02-17 05:31:00,SystemResetWarning,0836.1,4.99,000.00,018.8,019.2,000.0,027.3,020.9,11.7,0000.0,0003.68,0003.19,0003.10
2024-02-17 05:32:00,SystemResetWarning,0836.1,5.00,000.00,018.8,018.9,000.0,027.2,020.6,11.7,0000.0,0003.64,0003.17,0003.08
2024-02-17 05:33:00,SystemResetWarning,0836.1,5.01,000.00,018.7,018.7,000.0,027.1,020.4,11.7,0000.0,0003.59,0003.14,0003.05
2024-02-17 05:34:00,SystemResetWarning,0836.1,5.00,000.00,018.7,018.5,000.0,027.1,020.2,11.8,0000.0,0003.64,0003.14,0003.01
2024-02-17 05:35:00,SystemResetWarning,0836.1,5.00,000.00,018.6,018.3,000.0,027.0,020.0,11.8,0000.0,0003.56,0003.11,0002.96
2024-02-17 05:36:00,SystemResetWarning,0836.1,5.00,000.00,018.5,018.1,000.0,027.1,020.0,11.8,0000.0,0003.53,0003.08,0002.92
2024-02-17 05:37:00,SystemResetWarning,0836.1,4.99,000.00,018.5,018.0,000.0,027.1,020.0,11.9,0000.0,0003.39,0003.02,0002.87
2024-02-17 05:38:00,SystemResetWarning,0836.1,5.00,000.00,018.4,017.8,000.0,027.1,020.0,11.9,0000.0,0003.38,0003.00,0002.85
2024-02-17 05:39:00,SystemResetWarning,0836.0,5.01,000.00,018.4,017.7,000.0,027.1,020.0,11.9,0000.0,0003.36,0002.99,0002.84
2024-02-17 05:40:00,SystemResetWarning,0835.9,5.00,000.00,018.4,017.8,000.0,027.1,020.2,11.9,0000.0,0003.33,0002.97,0002.83
2024-02-17 05:41:00,SystemResetWarning,0835.9,5.00,000.00,018.6,018.6,000.0,027.2,020.7,11.8,0000.0,0003.31,0002.97,0002.83
2024-02-17 05:42:00,SystemResetWarning,0836.0,4.99,000.00,018.8,019.2,000.0,027.3,021.0,11.7,0000.0,0003.25,0002.96,0002.82
2024-02-17 05:43:00,SystemResetWarning,0836.1,4.99,000.00,018.8,019.0,000.0,027.2,020.8,11.6,0000.0,0003.27,0002.95,0002.81
2024-02-17 05:44:00,SystemResetWarning,0836.2,5.02,000.00,018.8,018.8,000.0,027.2,020.6,11.7,0000.0,0003.28,0002.97,0002.82
2024-02-17 05:45:00,SystemResetWarning,0836.1,5.01,000.00,018.7,018.6,000.0,027.1,020.4,11.7,0000.0,0003.22,0002.96,0002.82
2024-02-17 05:46:00,SystemResetWarning,0836.2,4.99,000.00,018.7,018.4,000.0,027.1,020.2,11.7,0000.0,0003.27,0002.98,0002.83
2024-02-17 05:47:00,SystemResetWarning,0836.2,4.99,000.00,018.6,018.3,000.0,027.1,020.1,11.8,0000.0,0003.24,0002.97,0002.84
2024-02-17 05:48:00,SystemResetWarning,0836.2,5.01,000.00,018.6,018.1,000.0,027.0,020.1,11.8,0000.0,0003.26,0002.99,0002.87
2024-02-17 05:49:00,SystemResetWarning,0836.3,5.00,000.00,018.5,018.0,000.0,027.0,020.0,11.8,0000.0,0003.27,0003.00,0002.88
2024-02-17 05:50:00,SystemResetWarning,0836.3,5.00,000.00,018.5,017.9,000.0,027.0,020.0,11.8,0000.0,0003.57,0003.04,0002.90
2024-02-17 05:51:00,SystemResetWarning,0836.3,5.00,000.00,018.4,017.8,000.0,027.0,020.0,11.8,0000.0,0003.76,0003.06,0002.91
2024-02-17 05:52:00,SystemResetWarning,0836.3,5.00,000.00,018.4,017.8,000.0,027.0,020.0,11.9,0000.0,0003.78,0003.07,0002.92
2024-02-17 05:53:00,SystemResetWarning,0836.3,5.00,000.00,018.4,017.7,000.0,027.1,020.0,11.9,0000.0,0003.76,0003.08,0002.95
2024-02-17 05:54:00,SystemResetWarning,0836.4,5.00,000.00,018.4,017.6,000.0,027.1,020.0,11.9,0000.0,0003.83,0003.12,0003.01
2024-02-17 05:55:00,SystemResetWarning,0836.3,5.00,000.00,018.3,017.6,000.0,027.1,020.0,11.9,0000.0,0003.90,0003.15,0003.06
2024-02-17 05:56:00,SystemResetWarning,0836.2,5.01,000.00,018.4,017.7,000.0,027.1,020.1,11.9,0000.0,0003.93,0003.16,0003.10
2024-02-17 05:57:00,SystemResetWarning,0836.2,5.02,000.00,018.5,018.5,000.0,027.2,020.6,11.8,0000.0,0003.96,0003.18,0003.10
2024-02-17 05:58:00,SystemResetWarning,0836.3,4.99,000.00,018.7,019.2,000.0,027.2,021.0,11.6,0000.0,0003.99,0003.18,0003.11
2024-02-17 05:59:00,SystemResetWarning,0836.2,5.00,000.00,018.8,019.0,000.0,027.1,020.8,11.6,0000.0,0004.00,0003.18,0003.11
